Soldotna, AK

3:38 PM AKST on December 14, 2019 (GMT -0900)
Soldotna

Weather History for PASX - October, 2019

Change the Weather History Date:

Saturday, October 26, 2019

  Actual Average Record
Temperature  
Mean Temperature 35 °F -  
Max Temperature 42 °F 35 °F 53 °F (2018)
Min Temperature 28 °F 20 °F -11 °F (1966)
Degree Days  
Heating Degree Days 30    
Moisture  
Dew Point 33 °F    
Average Humidity 88    
Maximum Humidity 93    
Minimum Humidity 82    
Precipitation  
Precipitation 0.00 in - - ()
Sea Level Pressure  
Sea Level Pressure 30.54 in    
Wind  
Wind Speed 3 mph (WNW)    
Max Wind Speed 6 mph    
Max Gust Speed -    
Visibility 10 miles    
Events Rain    
Averages and records for this station are not official NWS values.
T = Trace of Precipitation, MM = Missing Value Source: NWS Daily Summary

Daily Weather History Graph

Daily Weather History Graph

Search for Another Location

Airport or City:

Astronomy

Oct. 26, 2019 Rise Set
Actual Time 9:12 AM AKDT 6:22 PM AKDT
Civil Twilight 8:28 AM AKDT 7:06 PM AKDT
Nautical Twilight 7:38 AM AKDT 7:56 PM AKDT
Astronomical Twilight 6:49 AM AKDT 8:44 PM AKDT
Moon 6:34 AM AKDT (10/26) 6:39 PM AKDT (10/26)
Length of Visible Light 10h 38m
Length of Day
9h 09m
Waning Crescent, 3% of the Moon is Illuminated
Oct 26
Waning Crescent
Oct 27
New
Nov 4
First Quarter
Nov 12
Full
Nov 19
Last Quarter

Hourly Weather History & Observations

Time (AKDT) Temp. Windchill Dew Point Humidity Pressure Visibility Wind Dir Wind Speed Gust Speed Precip Events Conditions
12:56 AM 30.0 °F 24.1 °F 27.0 °F 88% 30.56 in 10.0 mi ENE 5.8 mph - N/A   Clear
1:56 AM 32.0 °F 27.5 °F 28.9 °F 88% 30.58 in 10.0 mi ENE 4.6 mph - 0.00 in   Overcast
2:56 AM 33.1 °F 30.0 °F 28.0 °F 82% 30.59 in 10.0 mi ENE 3.5 mph - 0.00 in   Mostly Cloudy
4:56 AM 33.1 °F - 28.0 °F 82% 30.58 in 10.0 mi Calm Calm - N/A   Clear
5:56 AM 30.9 °F - 27.0 °F 85% 30.58 in 10.0 mi Calm Calm - N/A   Clear
6:56 AM 28.9 °F - 26.1 °F 89% 30.58 in 10.0 mi Calm Calm - N/A   Clear
7:56 AM 30.9 °F - 28.9 °F 92% 30.58 in 10.0 mi Calm Calm - N/A   Clear
9:56 AM 32.0 °F - 28.9 °F 88% 30.61 in 10.0 mi Calm Calm - N/A   Clear
10:56 AM 34.0 °F - 30.9 °F 89% 30.61 in 10.0 mi Calm Calm - N/A   Clear
11:56 AM 35.1 °F 32.2 °F 32.0 °F 89% 30.61 in 10.0 mi East 3.5 mph - 0.00 in Rain Light Rain
1:56 PM 39.9 °F - 35.1 °F 83% 30.59 in 10.0 mi Calm Calm - 0.00 in   Scattered Clouds
2:56 PM 41.0 °F - 37.0 °F 86% 30.57 in 10.0 mi Calm Calm - N/A   Clear
3:56 PM 42.1 °F - 37.0 °F 82% 30.56 in 10.0 mi Calm Calm - 0.00 in Rain Light Rain
4:56 PM 42.1 °F - 37.0 °F 82% 30.53 in 10.0 mi Calm Calm - 0.00 in Rain Light Rain
5:56 PM 41.0 °F 38.0 °F 37.9 °F 89% 30.51 in 10.0 mi WNW 4.6 mph - 0.00 in   Overcast
6:56 PM 41.0 °F - 37.9 °F 89% 30.48 in 10.0 mi Calm Calm - N/A   Overcast
7:56 PM 39.9 °F 35.8 °F 37.9 °F 93% 30.47 in 10.0 mi WSW 5.8 mph - N/A   Overcast
8:56 PM 41.0 °F 38.0 °F 37.9 °F 89% 30.48 in 10.0 mi West 4.6 mph - 0.00 in Rain Light Rain
9:56 PM 41.0 °F - 37.9 °F 89% 30.45 in 10.0 mi Calm Calm - 0.00 in   Mostly Cloudy
10:56 PM 39.9 °F 37.8 °F 37.9 °F 93% 30.43 in 10.0 mi WSW 3.5 mph - 0.00 in Rain Light Rain
11:56 PM 39.9 °F 36.7 °F 37.9 °F 93% 30.43 in 10.0 mi West 4.6 mph - 0.00 in Rain Light Rain